PDT,Max TemperatureF,Mean TemperatureF,Min TemperatureF,Max Dew PointF,MeanDew PointF,Min DewpointF,Max Humidity, Mean Humidity, Min Humidity, Max Sea Level PressureIn, Mean Sea Level PressureIn, Min Sea Level PressureIn, Max VisibilityMiles, Mean VisibilityMiles, Min VisibilityMiles, Max Wind SpeedMPH, Mean Wind SpeedMPH, Max Gust SpeedMPH,PrecipitationIn, CloudCover, Events, WindDirDegrees
2013-5-1,84,76,68,,,,,,,30.08,30.01,29.88,20,20,20,41,27,50,0.00,0,,31
2013-5-2,82,70,59,,,,,,,30.32,30.24,30.18,20,20,20,12,5,,0.00,0,,40
2013-5-3,89,66,44,,,,,,,30.12,30.00,29.82,20,20,20,12,2,,0.00,0,,185
2013-5-4,87,72,57,,,,,,,29.78,29.64,29.58,20,20,20,20,10,,0.00,1,,253
2013-5-5,64,62,59,,,,,,,29.83,29.79,29.69,20,20,20,15,13,26,0.00,5,,205
2013-5-6,66,58,50,,,,,,,29.97,29.90,29.86,20,20,20,17,11,,0.00,4,,188
2013-5-7,69,58,48,,,,,,,29.90,29.90,29.90,20,20,20,14,6,,0.00,2,,285
2013-5-8,73,62,50,,,,,,,29.98,29.96,29.95,20,20,20,10,8,,0.00,4,,314
2013-5-9,71,63,55,,,,,,,30.06,30.03,30.02,20,20,20,8,3,,0.00,4,,280
2013-5-10,89,68,57,,,,,,,30.10,30.07,30.01,20,20,20,12,6,,0.00,0,,10
2013-5-11,93,78,62,,,,,,,30.09,30.07,30.06,20,20,20,7,6,,0.00,2,,350
2013-5-12,95,84,77,,,,,,,30.15,30.10,29.98,20,20,20,9,7,,0.00,0,,275
2013-5-13,96,80,64,,,,,,,30.05,30.00,29.94,20,20,20,21,7,,0.00,0,,256
2013-5-14,86,78,69,,,,,,,29.94,29.88,29.85,20,20,20,25,15,37,0.00,0,,229
2013-5-15,93,82,71,,,,,,,29.86,29.79,29.74,20,20,20,30,23,40,0.00,1,,270
2013-5-16,86,80,75,,,,,,,29.82,29.79,29.78,20,20,20,17,4,,0.00,6,,228
2013-5-17,80,78,75,,,,,,,29.82,29.79,29.76,20,20,20,25,10,26,0.00,2,,265
2013-5-18,86,75,64,,,,,,,29.88,29.85,29.84,20,20,20,15,9,,0.00,0,,270
2013-5-19,87,72,57,,,,,,,30.00,29.93,29.86,20,20,20,23,10,,0.00,0,,28
2013-5-20,87,78,69,,,,,,,30.07,30.00,29.93,20,20,20,24,16,30,0.00,1,,314
2013-5-21,89,76,64,,,,,,,29.88,29.81,29.74,20,20,20,23,7,36,0.00,0,,220
2013-5-22,78,73,68,,,,,,,29.68,29.63,29.60,20,20,20,32,17,45,0.00,1,,310
2013-5-23,80,68,55,,,,,,,29.76,29.72,29.68,20,20,20,23,6,32,0.00,0,,270
2013-5-24,84,67,50,,,,,,,29.92,29.87,29.80,20,20,20,14,4,,0.00,1,,145
2013-5-25,86,72,59,,,,,,,29.85,29.82,29.80,20,20,20,22,12,,0.00,1,,220
2013-5-26,86,73,60,,,,,,,29.82,29.82,29.82,20,20,20,20,9,,0.00,0,,270
2013-5-27,84,72,60,,,,,,,29.92,29.83,29.75,20,20,20,31,7,39,0.00,3,,295
2013-5-28,86,78,69,,,,,,,29.72,29.70,29.67,20,20,20,24,18,32,0.00,3,,293
2013-5-29,89,74,60,,,,,,,29.74,29.67,29.63,20,20,20,22,12,23,0.00,1,,280
2013-5-30,95,80,64,,,,,,,29.88,29.78,29.69,20,20,20,29,8,34,0.00,2,,289
2013-5-31,96,80,64,,,,,,,29.99,29.90,29.80,20,20,20,9,5,,0.00,0,,38